CW4421 Weather Reports


Display with metric or nautical units.
time (UTC)temp
F
wind
direction
speed
MPH
gust
MPH
rain 1hr
in
rain 24hr
in
rain mn
in
humidity
%
barometer
mb
20260505214605 55 63 9.0 22.0 0.00 0.05 0.05 52 1009.5
20260505213054 55 49 15.0 25.0 0.00 0.05 0.05 52 1009.6
20260505211631 56 72 12.0 27.0 0.00 0.05 0.05 52 1009.6
20260505210053 56 22 12.0 20.0 0.00 0.05 0.05 52 1009.7
20260505204603 56 73 11.0 24.0 0.00 0.05 0.05 51 1009.6
20260505203055 56 63 12.0 23.0 0.00 0.05 0.05 51 1009.9
20260505201553 56 59 13.0 21.0 0.00 0.05 0.05 53 1010.0
20260505200052 56 81 13.0 24.0 0.00 0.05 0.05 54 1009.7
20260505194551 55 71 14.0 23.0 0.00 0.05 0.05 56 1009.9
20260505193051 55 75 12.0 20.0 0.00 0.05 0.05 60 1009.4
20260505191550 55 59 16.0 25.0 0.00 0.05 0.05 60 1009.6
20260505190049 53 73 10.0 15.0 0.00 0.05 0.05 64 1009.7
20260505184549 53 25 10.0 19.0 0.00 0.05 0.05 67 1009.7
20260505183048 53 68 10.0 18.0 0.00 0.05 0.05 69 1009.8
20260505181615 52 75 11.0 16.0 0.00 0.05 0.05 70 1009.9
20260505174547 51 70 12.0 20.0 0.05 0.05 0.05 76 1009.9
20260505173046 50 76 9.0 18.0 0.05 0.05 0.05 85 1009.7
20260505171551 47 76 10.0 15.0 0.05 0.05 0.05 85 1010.1
20260505170043 48 57 8.0 19.0 0.00 0.00 0.00 78 1009.8
20260505164539 49 52 11.0 19.0 0.00 0.00 0.00 73 1009.6
20260505163035 50 51 15.0 27.0 0.00 0.00 0.00 65 1009.9
20260505161531 51 59 18.0 28.0 0.00 0.00 0.00 59 1009.5
20260505153036 52 65 15.0 25.0 0.00 0.00 0.00 55 1008.9
20260505151527 52 71 13.0 26.0 0.00 0.00 0.00 55 1008.4
20260505124511 52 47 14.0 27.0 0.00 0.00 0.00 50 1006.3
20260505123007 53 67 15.0 28.0 0.00 0.00 0.00 50 1006.1
20260505121506 53 63 15.0 25.0 0.00 0.00 0.00 50 1006.0
20260505120005 53 51 12.0 22.0 0.00 0.00 0.00 50 1005.5
20260505114503 53 65 14.0 24.0 0.00 0.00 0.00 50 1005.1
20260505113106 53 81 13.0 21.0 0.00 0.00 0.00 51 1005.4
20260505111603 53 53 15.0 26.0 0.00 0.00 0.00 50 1005.0
20260505110113 54 65 15.0 25.0 0.00 0.00 0.00 50 1004.5
20260505101601 54 62 13.0 26.0 0.00 0.00 0.00 50 1003.2
20260505100052 54 63 16.0 30.0 0.00 0.00 0.00 50 1003.1
20260505094550 55 47 20.0 31.0 0.00 0.00 0.00 49 1002.7
20260505093049 55 46 17.0 28.0 0.00 0.00 0.00 49 1002.6
20260505091553 55 59 17.0 32.0 0.00 0.00 0.00 49 1002.6
20260505090045 55 56 17.0 33.0 0.00 0.00 0.00 49 1002.6
20260505084553 56 73 17.0 31.0 0.00 0.00 0.00 48 1002.0
20260505083054 56 65 19.0 35.0 0.00 0.00 0.00 47 1001.9
20260505081539 57 34 23.0 33.0 0.00 0.00 0.00 46 1002.0
20260505080036 57 58 18.0 31.0 0.00 0.00 0.00 46 1001.9
20260505074535 58 52 16.0 28.0 0.00 0.00 0.00 46 1001.5
20260505073032 58 61 15.0 32.0 0.00 0.00 0.00 46 1001.5
20260505071528 59 65 17.0 24.0 0.00 0.00 0.00 47 1001.2
20260505070024 60 80 18.0 27.0 0.00 0.00 0.00 49 1001.3
20260505064532 60 59 14.0 26.0 0.00 0.00 0.00 54 1001.0
20260505063020 61 66 18.0 29.0 0.00 0.00 0.00 54 1000.4
20260505061517 61 63 18.0 28.0 0.00 0.00 0.00 53 1000.0
20260505060016 62 59 16.0 30.0 0.00 0.00 0.00 51 999.6
20260505054520 62 69 17.0 29.0 0.00 0.00 0.00 52 999.5
20260505053009 61 46 17.0 25.0 0.00 0.00 0.00 58 999.4
20260505051508 62 75 11.0 19.0 0.00 0.00 0.00 61 999.4
20260505041504 71 63 4.0 6.0 0.00 0.00 0.00 59 999.0
20260505040002 71 68 4.0 8.0 0.00 0.00 0.00 59 998.8
20260505034502 70 334 0.0 2.0 0.00 0.00 0.00 59 998.5
20260505033001 72 305 1.0 4.0 0.00 0.00 0.00 57 998.4
20260505031606 72 134 1.0 5.0 0.00 0.00 0.00 55 998.3
20260505030124 73 137 3.0 5.0 0.00 0.00 0.00 54 997.9
20260505024612 73 116 3.0 5.0 0.00 0.00 0.00 53 997.9
20260505023059 74 129 3.0 5.0 0.00 0.00 0.00 51 997.5
20260505021558 74 156 3.0 11.0 0.00 0.00 0.00 50 997.4
20260505020108 75 155 4.0 6.0 0.00 0.00 0.00 46 996.9
20260505014557 75 142 2.0 4.0 0.00 0.00 0.00 45 997.4
20260505013056 75 178 2.0 5.0 0.00 0.00 0.00 45 997.2
20260505011601 76 202 4.0 6.0 0.00 0.00 0.00 44 996.9
20260505010110 77 191 4.0 5.0 0.00 0.00 0.00 42 996.6
20260505004620 79 190 3.0 6.0 0.00 0.00 0.00 40 996.3
20260505003059 80 163 3.0 8.0 0.00 0.00 0.00 39 996.3
20260505001553 81 166 4.0 6.0 0.00 0.00 0.00 36 996.3
20260505000104 82 175 5.0 9.0 0.00 0.00 0.00 34 996.4
20260504234553 83 170 5.0 12.0 0.00 0.00 0.00 34 996.8
20260504233052 84 153 8.0 12.0 0.00 0.00 0.00 35 996.8
20260504231619 84 182 8.0 12.0 0.00 0.00 0.00 34 996.8
20260504230050 84 125 2.0 8.0 0.00 0.00 0.00 33 996.5
20260504224549 84 133 3.0 8.0 0.00 0.00 0.00 33 996.8
20260504223049 85 98 2.0 8.0 0.00 0.00 0.00 30 996.8
20260504221625 85 136 4.0 13.0 0.00 0.00 0.00 27 996.9
20260504220046 85 116 3.0 8.0 0.00 0.00 0.00 28 997.2